,

(GMT )
Al Udeid

Weather History for KQIR - January, 2013

Change the Weather History Date:

Saturday, January 19, 2013

  Actual Average Record
Temperature  
Mean Temperature 60 °F -  
Max Temperature 70 °F - - ()
Min Temperature 49 °F - - ()
Degree Days  
Heating Degree Days 6    
Growing Degree Days 10 (Base 50)    
Moisture  
Dew Point 46 °F    
Average Humidity 61    
Maximum Humidity 82    
Minimum Humidity 33    
Precipitation  
Precipitation 0.00 in - - ()
Sea Level Pressure  
Sea Level Pressure 30.19 in    
Wind  
Wind Speed 2 mph ()    
Max Wind Speed 12 mph    
Max Gust Speed -    
Visibility 6.2 miles    
Events      
Averages and records for this station are not official NWS values.
T = Trace of Precipitation, MM = Missing Value Source: Averaged Metar Reports

Daily Weather History Graph

Daily Weather History Graph

Search for Another Location

Airport or City:

Trip Planner

Search our weather history database for the weather conditions in past years. The results will help you decide how hot, cold, wet, or windy it might be!

Date:

Astronomy

Jan. 19, 2013 Rise Set
Actual Time 6:21 AM +03 5:09 PM +03
Civil Twilight 5:57 AM +03 5:34 PM +03
Nautical Twilight 5:29 AM +03 6:01 PM +03
Astronomical Twilight 5:01 AM +03 6:29 PM +03
Moon 11:14 AM +03 (1/19) No Moon Set
Length of Visible Light 11h 36m
Length of Day
10h 48m
First Quarter, 54% of the Moon is Illuminated
Jan 19
First Quarter
Jan 27
Full
Feb 3
Last Quarter
Feb 10
New
Feb 17
First Quarter

Hourly Weather History & Observations

Time (+03) Temp. Dew Point Humidity Pressure Visibility Wind Dir Wind Speed Gust Speed Precip Events Conditions
12:55 AM 52.5 °F 44.2 °F 73% 30.17 in 6.2 mi SE 3.5 mph - N/A   Clear
1:55 AM 52.5 °F 45.1 °F 76% 30.16 in 6.2 mi Calm Calm - N/A   Clear
2:55 AM 51.4 °F 44.8 °F 78% 30.16 in 6.2 mi Calm Calm - N/A   Clear
3:55 AM 52.9 °F 45.7 °F 77% 30.17 in 6.2 mi Calm Calm - N/A   Clear
4:55 AM 52.0 °F 45.3 °F 78% 30.19 in 6.2 mi Calm Calm - N/A   Clear
5:55 AM 51.3 °F 45.0 °F 79% 30.20 in 6.2 mi Calm Calm - N/A   Clear
6:55 AM 49.6 °F 44.4 °F 82% 30.22 in 6.2 mi Calm Calm - N/A   Clear
7:55 AM 54.5 °F 46.8 °F 75% 30.24 in 6.2 mi Calm Calm - N/A   Clear
8:55 AM 61.9 °F 50.9 °F 67% 30.25 in 6.2 mi SSE 3.5 mph - N/A   Clear
9:55 AM 66.6 °F 48.0 °F 51% 30.25 in 6.2 mi SE 6.9 mph - N/A   Partly Cloudy
10:55 AM 67.5 °F 43.3 °F 42% 30.22 in 6.2 mi SSE 4.6 mph - N/A   Clear
11:55 AM 69.3 °F 41.5 °F 37% 30.19 in 6.2 mi Calm Calm - N/A   Clear
12:55 PM 70.3 °F 41.9 °F 36% 30.17 in 6.2 mi Variable 3.5 mph - N/A   Clear
1:55 PM 70.0 °F 40.3 °F 34% 30.15 in 6.2 mi Variable 3.5 mph - N/A   Clear
2:55 PM 70.5 °F 39.7 °F 33% 30.15 in 6.2 mi Calm Calm - N/A   Clear
3:55 PM 70.2 °F 39.4 °F 33% 30.16 in 6.2 mi Calm Calm - N/A   Clear
4:55 PM 67.3 °F 47.1 °F 48% 30.17 in 6.2 mi East 11.5 mph - N/A   Clear
5:55 PM 64.8 °F 48.9 °F 56% 30.18 in 6.2 mi ESE 10.4 mph - N/A   Clear
6:55 PM 63.3 °F 49.3 °F 60% 30.19 in 6.2 mi ESE 8.1 mph - N/A   Clear
7:55 PM 62.1 °F 48.2 °F 60% 30.19 in 6.2 mi SE 6.9 mph - N/A   Clear
8:55 PM 60.6 °F 48.6 °F 64% 30.18 in 6.2 mi SE 6.9 mph - N/A   Clear
9:55 PM 58.6 °F 48.7 °F 70% 30.17 in 6.2 mi SE 6.9 mph - N/A   Clear
10:55 PM 57.6 °F 48.9 °F 73% 30.17 in 6.2 mi South 3.5 mph - N/A   Clear
11:55 PM 55.0 °F 47.3 °F 75% 30.15 in 6.2 mi Calm Calm - N/A   Clear